Location: Charentilly
(47.4702°N, 0.6096°E)
Time: 03:46:08
(UTC+01:00)

ISS - Visible Passes

Search period start: 24 March 2019 00:00
Search period end: 03 April 2019 01:00
Orbit: 408 x 411 km, 51.6° (Epoch: 23 March)

Date Brightness Start Highest point End Pass type
(mag) Time Alt. Az. Time Alt. Az. Time Alt. Az.
24 Mar -3.6 21:06:09 10° WSW 21:09:27 69° NNW 21:09:56 57° NNE visible
25 Mar -3.9 20:15:29 10° WSW 20:18:48 83° SSE 20:21:39 13° ENE visible
25 Mar -1.7 21:52:26 10° WNW 21:54:26 28° NW 21:54:26 28° NW visible
26 Mar -2.9 21:01:37 10° W 21:04:50 46° NNW 21:06:00 31° NE visible
26 Mar -0.3 22:38:39 10° WNW 22:38:46 11° WNW 22:38:46 11° WNW visible
27 Mar -3.3 20:10:48 10° W 20:14:04 58° NNW 20:17:21 10° ENE visible
27 Mar -2.1 21:47:53 10° WNW 21:50:14 32° NNW 21:50:14 32° NNW visible
28 Mar -2.6 20:57:05 10° WNW 21:00:13 38° N 21:01:38 25° NE visible
28 Mar -0.5 22:33:54 10° WNW 22:34:24 13° WNW 22:34:24 13° WNW visible
29 Mar -2.8 20:06:13 10° W 20:09:23 42° N 20:12:34 10° ENE visible
29 Mar -2.5 21:43:11 10° WNW 21:45:44 38° NNW 21:45:44 38° NNW visible
30 Mar -2.8 20:52:25 10° WNW 20:55:34 39° N 20:57:03 24° ENE visible
30 Mar -0.8 22:29:04 10° WNW 22:29:48 16° WNW 22:29:48 16° WNW visible
31 Mar -2.7 21:01:36 10° WNW 21:04:43 38° N 21:07:51 10° ENE visible
31 Mar -3.1 22:38:20 10° WNW 22:41:05 53° NNW 22:41:05 53° NNW visible
01 Apr -3.2 21:47:36 10° WNW 21:50:50 49° NNE 21:52:22 26° ENE visible
01 Apr -1.0 23:24:15 10° WNW 23:25:07 16° W 23:25:07 16° W visible
02 Apr -2.9 20:56:50 10° WNW 20:59:59 41° N 21:03:10 10° E visible
02 Apr -3.5 22:33:26 10° WNW 22:36:24 63° WSW 22:36:24 63° WSW visible
